When you browse on this site, cookies collect data to enhance your experience and personalize the content and advertising you see.
Visit our Privacy Policy to learn more. By continuing to use the site, you agree to this use of cookies and data.
  • In Schweiz
  • Länderverzeichnis
  • Für 7 Tage
  • Wassertemperatur
  • Wetterkarte
  • Widgets
  • user-avatar
    Anmelden

    Stündliche Wetter Olimpiya

    Heute, 29 Mai, Freitag

    Zeit Temperatur Niederschläge Wind Luftdruck Luftfeuchtigkeit
    00:00 +16°C° 0 mm 1 m/S 756 mmHg 71%
    01:00 +15°C° 0 mm 1 m/S 756 mmHg 75%
    02:00 +14°C° 0 mm 1 m/S 756 mmHg 79%
    03:00 +13°C° 0 mm 1 m/S 756 mmHg 83%
    04:00 +12°C° 0 mm 1 m/S 756 mmHg 87%
    05:00 +14°C° 0 mm 1 m/S 756 mmHg 81%
    06:00 +15°C° 0 mm 1 m/S 756 mmHg 74%
    07:00 +18°C° 0 mm 1 m/S 756 mmHg 68%
    08:00 +21°C° 0 mm 1 m/S 756 mmHg 60%
    09:00 +24°C° 0 mm 1 m/S 755 mmHg 52%
    10:00 +25°C° 0 mm 0 m/S 755 mmHg 44%
    11:00 +28°C° 0 mm 1 m/S 755 mmHg 41%
    12:00 +29°C° 0 mm 1 m/S 755 mmHg 38%
    13:00 +30°C° 0 mm 1 m/S 755 mmHg 35%
    14:00 +30°C° 0 mm 2 m/S 754 mmHg 37%
    15:00 +29°C° 0 mm 2 m/S 754 mmHg 38%
    16:00 +29°C° 0 mm 2 m/S 753 mmHg 39%
    17:00 +26°C° 0 mm 2 m/S 753 mmHg 46%
    18:00 +24°C° 0 mm 2 m/S 753 mmHg 52%
    19:00 +21°C° 0 mm 1 m/S 753 mmHg 58%
    20:00 +19°C° 0 mm 1 m/S 753 mmHg 61%
    21:00 +16°C° 0 mm 1 m/S 753 mmHg 64%
    22:00 +14°C° 0 mm 1 m/S 753 mmHg 67%
    23:00 +14°C° 0 mm 1 m/S 753 mmHg 69%

    Morgen, 30 Mai, Samstag

    Zeit Temperatur Niederschläge Wind Luftdruck Luftfeuchtigkeit
    00:00 +13°C° 0 mm 1 m/S 753 mmHg 71%
    01:00 +12°C° 0 mm 1 m/S 753 mmHg 74%
    02:00 +12°C° 0 mm 1 m/S 753 mmHg 75%
    03:00 +11°C° 0 mm 1 m/S 752 mmHg 76%
    04:00 +11°C° 0 mm 1 m/S 752 mmHg 77%
    05:00 +12°C° 0.1 mm 1 m/S 752 mmHg 79%
    06:00 +13°C° 0.1 mm 1 m/S 752 mmHg 80%
    07:00 +13°C° 0.1 mm 1 m/S 752 mmHg 81%
    08:00 +14°C° 0.3 mm 1 m/S 752 mmHg 81%
    09:00 +14°C° 0.3 mm 1 m/S 752 mmHg 81%
    10:00 +15°C° 0.3 mm 1 m/S 752 mmHg 82%
    11:00 +15°C° 0.3 mm 1 m/S 752 mmHg 81%
    12:00 +16°C° 0.3 mm 2 m/S 752 mmHg 81%
    13:00 +16°C° 0.3 mm 3 m/S 752 mmHg 81%
    14:00 +15°C° 0.6 mm 2 m/S 752 mmHg 86%
    15:00 +14°C° 0.6 mm 2 m/S 751 mmHg 91%
    16:00 +13°C° 0.6 mm 1 m/S 751 mmHg 96%
    17:00 +12°C° 3.3 mm 2 m/S 751 mmHg 97%
    18:00 +11°C° 3.3 mm 3 m/S 752 mmHg 97%
    19:00 +10°C° 3.3 mm 3 m/S 752 mmHg 97%
    20:00 +10°C° 1 mm 3 m/S 752 mmHg 97%
    21:00 +10°C° 1 mm 3 m/S 753 mmHg 97%
    22:00 +8°C° 1 mm 4 m/S 753 mmHg 96%
    23:00 +8°C° 0.4 mm 4 m/S 753 mmHg 95%

    übermorgen, 31 Mai, Sonntag

    Zeit Temperatur Niederschläge Wind Luftdruck Luftfeuchtigkeit
    00:00 +8°C° 0.4 mm 4 m/S 754 mmHg 94%
    01:00 +8°C° 0.4 mm 4 m/S 755 mmHg 93%
    02:00 +8°C° 0.2 mm 4 m/S 755 mmHg 92%
    03:00 +8°C° 0.2 mm 4 m/S 756 mmHg 91%
    04:00 +8°C° 0.2 mm 4 m/S 756 mmHg 90%
    05:00 +10°C° 0 mm 4 m/S 757 mmHg 84%
    06:00 +11°C° 0 mm 4 m/S 757 mmHg 79%
    07:00 +11°C° 0 mm 4 m/S 758 mmHg 74%
    08:00 +12°C° 0.1 mm 4 m/S 758 mmHg 66%
    09:00 +14°C° 0.1 mm 4 m/S 759 mmHg 58%
    10:00 +15°C° 0.1 mm 4 m/S 759 mmHg 50%
    11:00 +15°C° 0 mm 4 m/S 759 mmHg 47%
    12:00 +17°C° 0 mm 4 m/S 759 mmHg 44%
    13:00 +18°C° 0 mm 3 m/S 759 mmHg 42%
    14:00 +18°C° 0 mm 3 m/S 759 mmHg 42%
    15:00 +18°C° 0 mm 3 m/S 759 mmHg 42%
    16:00 +18°C° 0 mm 3 m/S 759 mmHg 43%
    17:00 +17°C° 0 mm 3 m/S 759 mmHg 50%
    18:00 +16°C° 0 mm 2 m/S 759 mmHg 57%
    19:00 +15°C° 0 mm 2 m/S 759 mmHg 64%
    20:00 +13°C° 0 mm 1 m/S 759 mmHg 73%
    21:00 +10°C° 0 mm 1 m/S 759 mmHg 82%
    22:00 +7°C° 0 mm 0 m/S 760 mmHg 90%
    23:00 +7°C° 0 mm 0 m/S 760 mmHg 92%

    1 Juni, Montag

    Zeit Temperatur Niederschläge Wind Luftdruck Luftfeuchtigkeit
    00:00 +6°C° 0 mm 0 m/S 760 mmHg 93%
    01:00 +6°C° 0 mm 0 m/S 760 mmHg 94%
    02:00 +6°C° 0 mm 0 m/S 759 mmHg 95%
    03:00 +5°C° 0 mm 0 m/S 759 mmHg 95%
    04:00 +5°C° 0 mm 0 m/S 759 mmHg 96%
    05:00 +7°C° 0 mm 0 m/S 760 mmHg 88%
    06:00 +9°C° 0 mm 0 m/S 760 mmHg 81%
    07:00 +11°C° 0 mm 0 m/S 760 mmHg 73%
    08:00 +15°C° 0 mm 1 m/S 760 mmHg 64%
    09:00 +18°C° 0 mm 1 m/S 760 mmHg 55%
    10:00 +20°C° 0 mm 1 m/S 760 mmHg 46%
    11:00 +21°C° 0 mm 1 m/S 759 mmHg 43%
    12:00 +21°C° 0 mm 2 m/S 759 mmHg 39%
    13:00 +23°C° 0 mm 2 m/S 759 mmHg 36%
    14:00 +23°C° 0 mm 2 m/S 759 mmHg 36%
    15:00 +23°C° 0 mm 2 m/S 759 mmHg 36%
    16:00 +23°C° 0 mm 2 m/S 759 mmHg 37%
    17:00 +20°C° 0 mm 2 m/S 759 mmHg 44%
    18:00 +19°C° 0 mm 2 m/S 759 mmHg 52%
    19:00 +17°C° 0 mm 2 m/S 760 mmHg 60%
    20:00 +15°C° 0 mm 1 m/S 760 mmHg 69%
    21:00 +12°C° 0 mm 1 m/S 761 mmHg 78%
    22:00 +9°C° 0 mm 0 m/S 761 mmHg 87%
    23:00 +8°C° 0 mm 0 m/S 761 mmHg 89%

    2 Juni, Dienstag

    Zeit Temperatur Niederschläge Wind Luftdruck Luftfeuchtigkeit
    00:00 +8°C° 0 mm 0 m/S 761 mmHg 91%
    01:00 +7°C° 0 mm 0 m/S 761 mmHg 93%
    02:00 +7°C° 0 mm 0 m/S 761 mmHg 93%
    03:00 +6°C° 0 mm 0 m/S 761 mmHg 94%
    04:00 +6°C° 0 mm 0 m/S 761 mmHg 95%
    05:00 +8°C° 0 mm 0 m/S 761 mmHg 86%
    06:00 +10°C° 0 mm 0 m/S 762 mmHg 77%
    07:00 +13°C° 0 mm 1 m/S 762 mmHg 69%
    08:00 +16°C° 0 mm 1 m/S 761 mmHg 60%
    09:00 +20°C° 0 mm 1 m/S 761 mmHg 51%
    10:00 +22°C° 0 mm 1 m/S 761 mmHg 41%
    11:00 +24°C° 0 mm 1 m/S 761 mmHg 38%
    12:00 +25°C° 0 mm 1 m/S 761 mmHg 34%
    13:00 +27°C° 0 mm 1 m/S 760 mmHg 30%
    14:00 +27°C° 0 mm 1 m/S 760 mmHg 30%
    15:00 +27°C° 0 mm 1 m/S 760 mmHg 30%
    16:00 +27°C° 0 mm 1 m/S 759 mmHg 30%
    17:00 +25°C° 0 mm 1 m/S 759 mmHg 39%
    18:00 +22°C° 0 mm 1 m/S 759 mmHg 49%
    19:00 +19°C° 0 mm 2 m/S 759 mmHg 58%
    20:00 +18°C° 0 mm 1 m/S 760 mmHg 65%
    21:00 +14°C° 0 mm 1 m/S 760 mmHg 71%
    22:00 +12°C° 0 mm 1 m/S 760 mmHg 78%
    23:00 +11°C° 0 mm 1 m/S 760 mmHg 80%

    3 Juni, Mittwoch

    Zeit Temperatur Niederschläge Wind Luftdruck Luftfeuchtigkeit
    00:00 +10°C° 0 mm 0 m/S 760 mmHg 82%
    01:00 +9°C° 0 mm 0 m/S 760 mmHg 84%
    02:00 +9°C° 0 mm 0 m/S 760 mmHg 86%
    03:00 +8°C° 0 mm 0 m/S 759 mmHg 88%
    04:00 +8°C° 0 mm 0 m/S 759 mmHg 89%
    05:00 +10°C° 0 mm 0 m/S 759 mmHg 82%
    06:00 +11°C° 0 mm 0 m/S 759 mmHg 74%
    07:00 +13°C° 0 mm 0 m/S 759 mmHg 67%
    08:00 +16°C° 0 mm 0 m/S 759 mmHg 59%
    09:00 +19°C° 0 mm 0 m/S 759 mmHg 51%
    10:00 +21°C° 0 mm 0 m/S 759 mmHg 44%
    11:00 +25°C° 0 mm 1 m/S 759 mmHg 41%
    12:00 +26°C° 0 mm 1 m/S 758 mmHg 38%
    13:00 +28°C° 0 mm 1 m/S 758 mmHg 34%
    14:00 +27°C° 0 mm 1 m/S 757 mmHg 35%
    15:00 +27°C° 0 mm 1 m/S 757 mmHg 37%
    16:00 +27°C° 0 mm 1 m/S 757 mmHg 38%
    17:00 +25°C° 0 mm 1 m/S 756 mmHg 47%
    18:00 +24°C° 0 mm 1 m/S 756 mmHg 57%
    19:00 +22°C° 0 mm 1 m/S 756 mmHg 67%
    20:00 +20°C° 0 mm 1 m/S 756 mmHg 77%
    21:00 +16°C° 0 mm 1 m/S 756 mmHg 86%
    22:00 +14°C° 0 mm 1 m/S 756 mmHg 95%
    23:00 +14°C° 0 mm 1 m/S 756 mmHg 96%
    Mehr zeigen